Versailles, OH

6:25 AM EDT on July 30, 2016 (GMT -0400)
Darke County

Weather History for KVES - May, 2013

Change the Weather History Date:

Tuesday, May 7, 2013

  Actual Average (KDAY) Record (KDAY)
Temperature  
Mean Temperature 61 °F 59 °F  
Max Temperature 71 °F 69 °F 87 °F (1897)
Min Temperature 51 °F 49 °F 28 °F (1974)
Degree Days  
Heating Degree Days 4 7  
Month to date heating degree days 55  
Since 1 July heating degree days 5506  
Cooling Degree Days 0 1  
Month to date cooling degree days 7  
Year to date cooling degree days 17  
Growing Degree Days 11 (Base 50)    
Moisture  
Dew Point 54 °F    
Average Humidity 80    
Maximum Humidity 100    
Minimum Humidity 50    
Precipitation  
Precipitation 0.50 in 0.15 in 1.36 in (1998)
Month to date precipitation 1.05  
Year to date precipitation 13.43  
Snow  
Snow 0.00 in 0.00 in 0.00 in ()
Month to date snowfall 0.0  
Since 1 July snowfall 23.3  
Snow Depth -    
Sea Level Pressure  
Sea Level Pressure 29.98 in    
Wind  
Wind Speed 5 mph (NE)    
Max Wind Speed 15 mph    
Max Gust Speed 21 mph    
Visibility 10 miles    
Events Rain    
T = Trace of Precipitation, MM = Missing Value Source: NWS Daily Summary

Daily Weather History Graph

Daily Weather History Graph

Search for Another Location

Airport or City:

Trip Planner

Search our weather history database for the weather conditions in past years. The results will help you decide how hot, cold, wet, or windy it might be!

Date:

Astronomy

May. 07, 2013 Rise Set
Actual Time 6:30 AM EDT 8:39 PM EDT
Civil Twilight 6:00 AM EDT 9:09 PM EDT
Nautical Twilight 5:23 AM EDT 9:46 PM EDT
Astronomical Twilight 4:43 AM EDT 10:27 PM EDT
Moon 5:04 AM EDT (5/7) 6:38 PM EDT (5/7)
Length of Visible Light 15h 09m
Length of Day
14h 09m
Waning Crescent, 5% of the Moon is Illuminated
May 7
Waning Crescent
May 9
New
May 18
First Quarter
May 25
Full
May 31
Last Quarter

Hourly Weather History & Observations

Time (EDT) Temp. Dew Point Humidity Pressure Visibility Wind Dir Wind Speed Gust Speed Precip Events Conditions
12:15 AM 59.0 °F 53.6 °F 82% 29.99 in 10.0 mi ESE 3.5 mph - N/A   Overcast
12:35 AM 57.2 °F 53.6 °F 88% 29.99 in 10.0 mi East 4.6 mph - N/A   Overcast
12:55 AM 57.2 °F 53.6 °F 88% 29.99 in 10.0 mi ESE 4.6 mph - N/A   Overcast
1:15 AM 57.2 °F 53.6 °F 88% 29.99 in 10.0 mi Calm Calm - N/A   Overcast
1:35 AM 55.4 °F 53.6 °F 94% 29.98 in 10.0 mi ESE 3.5 mph - N/A   Overcast
1:55 AM 53.6 °F 53.6 °F 100% 29.97 in 10.0 mi Calm Calm - N/A   Overcast
2:15 AM 53.6 °F 51.8 °F 94% 29.97 in 10.0 mi North 3.5 mph - N/A   Scattered Clouds
2:35 AM 53.6 °F 51.8 °F 94% 29.97 in 10.0 mi NNE 3.5 mph - N/A   Clear
2:55 AM 53.6 °F 51.8 °F 94% 29.97 in 10.0 mi North 3.5 mph - N/A   Clear
3:15 AM 51.8 °F 51.8 °F 100% 29.97 in 10.0 mi Calm Calm - N/A   Clear
3:35 AM 51.8 °F 51.8 °F 100% 29.97 in 10.0 mi North 3.5 mph - N/A   Clear
3:55 AM 51.8 °F 51.8 °F 100% 29.97 in 10.0 mi North 4.6 mph - N/A   Clear
4:15 AM 51.8 °F 51.8 °F 100% 29.98 in 10.0 mi NNE 3.5 mph - N/A   Clear
4:35 AM 51.8 °F 51.8 °F 100% 29.98 in 10.0 mi Calm Calm - N/A   Mostly Cloudy
4:55 AM 53.6 °F 51.8 °F 94% 29.98 in 10.0 mi Calm Calm - N/A   Overcast
5:15 AM 53.6 °F 51.8 °F 94% 29.98 in 10.0 mi Calm Calm - N/A   Overcast
5:35 AM 53.6 °F 51.8 °F 94% 29.98 in 10.0 mi North 3.5 mph - N/A   Overcast
5:55 AM 51.8 °F 51.8 °F 100% 29.98 in 10.0 mi North 3.5 mph - N/A   Mostly Cloudy
6:15 AM 51.8 °F 51.8 °F 100% 29.99 in 7.0 mi North 3.5 mph - N/A   Scattered Clouds
6:35 AM 51.8 °F 51.8 °F 100% 29.99 in 7.0 mi Calm Calm - N/A   Mostly Cloudy
6:55 AM 53.6 °F 51.8 °F 94% 29.99 in 7.0 mi North 5.8 mph - N/A   Overcast
7:15 AM 53.6 °F 53.6 °F 100% 30.00 in 10.0 mi North 4.6 mph - N/A   Scattered Clouds
7:35 AM 53.6 °F 53.6 °F 100% 30.00 in 10.0 mi Calm Calm - N/A   Clear
7:55 AM 53.6 °F 53.6 °F 100% 30.00 in 10.0 mi Calm Calm - N/A   Scattered Clouds
8:15 AM 55.4 °F 53.6 °F 94% 30.00 in 10.0 mi NNE 3.5 mph - N/A   Mostly Cloudy
8:35 AM 57.2 °F 55.4 °F 94% 30.00 in 10.0 mi NNE 3.5 mph - N/A   Overcast
8:55 AM 59.0 °F 55.4 °F 88% 30.01 in 10.0 mi NE 6.9 mph - N/A   Overcast
9:15 AM 60.8 °F 55.4 °F 82% 30.01 in 10.0 mi NNE 8.1 mph - N/A   Overcast
9:35 AM 60.8 °F 53.6 °F 77% 30.01 in 10.0 mi NE 6.9 mph - N/A   Scattered Clouds
9:55 AM 62.6 °F 53.6 °F 72% 30.01 in 10.0 mi NNE 9.2 mph - N/A   Clear
10:15 AM 62.6 °F 53.6 °F 72% 30.01 in 10.0 mi NE 10.4 mph - N/A   Scattered Clouds
10:35 AM 62.6 °F 51.8 °F 68% 30.00 in 10.0 mi NE 10.4 mph - N/A   Overcast
10:55 AM 64.4 °F 51.8 °F 64% 30.00 in 10.0 mi NNE 10.4 mph 16.1 mph N/A   Mostly Cloudy
11:15 AM 64.4 °F 53.6 °F 68% 30.00 in 10.0 mi NE 10.4 mph - N/A   Mostly Cloudy
11:35 AM 64.4 °F 51.8 °F 64% 30.00 in 10.0 mi NE 11.5 mph - N/A   Overcast
11:55 AM 64.4 °F 51.8 °F 64% 30.00 in 10.0 mi NNE 11.5 mph 16.1 mph N/A   Mostly Cloudy
12:15 PM 68.0 °F 51.8 °F 56% 29.99 in 10.0 mi NNE 12.7 mph - N/A   Mostly Cloudy
12:35 PM 68.0 °F 51.8 °F 56% 29.99 in 10.0 mi NE 11.5 mph 16.1 mph N/A   Overcast
12:55 PM 68.0 °F 51.8 °F 56% 29.99 in 10.0 mi NE 15.0 mph 20.7 mph N/A   Mostly Cloudy
1:15 PM 68.0 °F 51.8 °F 56% 29.99 in 10.0 mi ENE 10.4 mph 16.1 mph N/A   Mostly Cloudy
1:35 PM 68.0 °F 51.8 °F 56% 29.99 in 10.0 mi ENE 9.2 mph - N/A   Mostly Cloudy
1:55 PM 68.0 °F 51.8 °F 56% 29.98 in 10.0 mi ENE 10.4 mph - N/A   Overcast
2:15 PM 69.8 °F 51.8 °F 53% 29.98 in 10.0 mi ENE 12.7 mph 17.3 mph N/A   Mostly Cloudy
2:35 PM 68.0 °F 51.8 °F 56% 29.98 in 10.0 mi ENE 6.9 mph - N/A   Mostly Cloudy
2:55 PM 69.8 °F 51.8 °F 53% 29.97 in 10.0 mi ENE 10.4 mph 19.6 mph N/A   Overcast
3:15 PM 69.8 °F 51.8 °F 53% 29.97 in 10.0 mi ENE 9.2 mph 18.4 mph N/A   Overcast
3:35 PM 69.8 °F 51.8 °F 53% 29.96 in 5.0 mi ENE 8.1 mph 17.3 mph N/A   Haze
3:55 PM 71.6 °F 51.8 °F 50% 29.95 in 10.0 mi NE 12.7 mph - N/A   Overcast
4:15 PM 71.6 °F 51.8 °F 50% 29.95 in 10.0 mi East 8.1 mph - N/A   Mostly Cloudy
4:35 PM 69.8 °F 51.8 °F 53% 29.95 in 10.0 mi ENE 8.1 mph - N/A   Overcast
4:55 PM 69.8 °F 51.8 °F 53% 29.94 in 10.0 mi ENE 8.1 mph - N/A   Overcast
5:15 PM 69.8 °F 51.8 °F 53% 29.94 in 10.0 mi NE 11.5 mph - N/A   Overcast
5:35 PM 69.8 °F 51.8 °F 53% 29.94 in 10.0 mi NNE 10.4 mph - N/A   Mostly Cloudy
5:55 PM 69.8 °F 51.8 °F 53% 29.94 in 10.0 mi NNE 8.1 mph - N/A   Mostly Cloudy
6:15 PM 69.8 °F 53.6 °F 56% 29.95 in 10.0 mi ESE 9.2 mph - N/A   Overcast
6:35 PM 64.4 °F 55.4 °F 73% 29.95 in 10.0 mi East 4.6 mph - N/A Rain Light Rain
6:55 PM 64.4 °F 55.4 °F 73% 29.95 in 10.0 mi East 3.5 mph - N/A   Overcast
7:15 PM 64.4 °F 59.0 °F 83% 29.97 in 3.0 mi NE 8.1 mph - 0.11 in Rain Heavy Rain
7:35 PM 64.4 °F 57.2 °F 77% 29.96 in 10.0 mi East 3.5 mph - 0.27 in   Overcast
7:55 PM 62.6 °F 59.0 °F 88% 29.96 in 10.0 mi Calm Calm - 0.27 in   Overcast
8:15 PM 62.6 °F 60.8 °F 94% 29.97 in 10.0 mi Calm Calm - N/A   Overcast
8:35 PM 62.6 °F 60.8 °F 94% 29.97 in 10.0 mi Calm Calm - N/A   Overcast
8:55 PM 62.6 °F 59.0 °F 88% 29.98 in 10.0 mi NE 4.6 mph - N/A   Overcast
9:15 PM 60.8 °F 57.2 °F 88% 29.99 in 3.0 mi East 5.8 mph - 0.10 in Rain Heavy Rain
9:35 PM 59.0 °F 59.0 °F 100% 30.00 in 5.0 mi SE 6.9 mph - 0.22 in Rain Light Rain
9:55 PM 59.0 °F 59.0 °F 100% 30.00 in 10.0 mi ESE 3.5 mph - 0.23 in   Overcast
10:15 PM 59.0 °F 59.0 °F 100% 30.00 in 10.0 mi Calm Calm - N/A   Mostly Cloudy
10:35 PM 59.0 °F 59.0 °F 100% 30.01 in 10.0 mi Calm Calm - N/A   Scattered Clouds
10:55 PM 59.0 °F 59.0 °F 100% 30.01 in 10.0 mi Calm Calm - N/A   Overcast
11:15 PM 57.2 °F 57.2 °F 100% 30.00 in 10.0 mi Calm Calm - N/A   Overcast
11:35 PM 57.2 °F 57.2 °F 100% 30.00 in 10.0 mi Calm Calm - N/A   Scattered Clouds
11:55 PM 57.2 °F 57.2 °F 100% 30.00 in 10.0 mi Calm Calm - N/A   Clear